Location: Chiroubles
(46.1812°N, 4.6660°E)
Time: 19:23:03
(UTC+00:00)

Cosmos 1850 Rocket - Pass Details

Date: 15 August 2020
Orbit: 755 x 784 km, 74.0° (Epoch: 24 September)

Event Time Altitude Azimuth Distance (km) Brightness Sun altitude
Rises 20:15:48 0° 189° (S) 3,248 7.0 -13.8°
Reaches altitude 10° 20:18:12 10° 186° (S) 2,321 6.2 -14.1°
Maximum altitude 20:23:23 61° 107° (ESE) 878 4.0 -14.9°
Drops below altitude 10° 20:28:34 10° 28° (NNE) 2,318 6.6 -15.5°
Sets 20:30:58 0° 25° (NNE) 3,245 7.5 -15.9°
